When you browse on this site, cookies collect data to enhance your experience and personalize the content and advertising you see.
Visit our Privacy Policy to learn more. By continuing to use the site, you agree to this use of cookies and data.

Hourly Weather Kadybash

Today, 26 September, Saturday

Time Temperature Precipitation Wind Pressure Humidity
00:00 +10°C° 0 mm 1 mps 762 mmHg 75%
01:00 +10°C° 0 mm 1 mps 762 mmHg 76%
02:00 +9°C° 0 mm 1 mps 762 mmHg 77%
03:00 +9°C° 0 mm 1 mps 763 mmHg 78%
04:00 +9°C° 0 mm 1 mps 763 mmHg 78%
05:00 +9°C° 0 mm 1 mps 763 mmHg 78%
06:00 +9°C° 0 mm 1 mps 763 mmHg 77%
07:00 +9°C° 0 mm 1 mps 763 mmHg 77%
08:00 +11°C° 0 mm 1 mps 763 mmHg 71%
09:00 +12°C° 0 mm 1 mps 763 mmHg 65%
10:00 +14°C° 0 mm 2 mps 763 mmHg 60%
11:00 +15°C° 0 mm 2 mps 763 mmHg 56%
12:00 +16°C° 0 mm 2 mps 763 mmHg 52%
13:00 +17°C° 0 mm 2 mps 764 mmHg 48%
14:00 +17°C° 0 mm 2 mps 764 mmHg 49%
15:00 +18°C° 0 mm 2 mps 764 mmHg 49%
16:00 +19°C° 0 mm 1 mps 764 mmHg 50%
17:00 +16°C° 0 mm 1 mps 764 mmHg 55%
18:00 +15°C° 0 mm 1 mps 764 mmHg 60%
19:00 +13°C° 0 mm 1 mps 764 mmHg 64%
20:00 +13°C° 0 mm 1 mps 764 mmHg 66%
21:00 +12°C° 0 mm 1 mps 764 mmHg 68%
22:00 +12°C° 0 mm 1 mps 764 mmHg 69%
23:00 +11°C° 0 mm 1 mps 764 mmHg 70%

Tomorrow, 27 September, Sunday

Time Temperature Precipitation Wind Pressure Humidity
00:00 +11°C° 0 mm 1 mps 764 mmHg 71%
01:00 +11°C° 0 mm 1 mps 764 mmHg 72%
02:00 +11°C° 0 mm 1 mps 764 mmHg 73%
03:00 +10°C° 0 mm 1 mps 765 mmHg 75%
04:00 +10°C° 0 mm 1 mps 765 mmHg 76%
05:00 +10°C° 0 mm 1 mps 765 mmHg 76%
06:00 +10°C° 0 mm 1 mps 765 mmHg 76%
07:00 +10°C° 0 mm 1 mps 765 mmHg 77%
08:00 +11°C° 0 mm 1 mps 765 mmHg 71%
09:00 +13°C° 0 mm 1 mps 765 mmHg 66%
10:00 +14°C° 0 mm 1 mps 765 mmHg 61%
11:00 +15°C° 0 mm 1 mps 765 mmHg 57%
12:00 +16°C° 0 mm 2 mps 765 mmHg 54%
13:00 +17°C° 0 mm 2 mps 765 mmHg 51%
14:00 +17°C° 0 mm 2 mps 765 mmHg 52%
15:00 +17°C° 0 mm 2 mps 765 mmHg 52%
16:00 +17°C° 0 mm 2 mps 765 mmHg 53%
17:00 +16°C° 0 mm 1 mps 765 mmHg 57%
18:00 +14°C° 0 mm 1 mps 765 mmHg 62%
19:00 +12°C° 0 mm 1 mps 765 mmHg 66%
20:00 +12°C° 0 mm 1 mps 765 mmHg 68%
21:00 +11°C° 0 mm 1 mps 765 mmHg 70%
22:00 +11°C° 0 mm 1 mps 765 mmHg 71%
23:00 +11°C° 0 mm 1 mps 765 mmHg 73%

Day after tomorrow, 28 September, Monday

Time Temperature Precipitation Wind Pressure Humidity
00:00 +10°C° 0 mm 1 mps 765 mmHg 74%
01:00 +10°C° 0 mm 1 mps 765 mmHg 75%
02:00 +10°C° 0 mm 1 mps 765 mmHg 76%
03:00 +9°C° 0 mm 1 mps 765 mmHg 77%
04:00 +9°C° 0 mm 1 mps 765 mmHg 78%
05:00 +9°C° 0 mm 1 mps 765 mmHg 78%
06:00 +9°C° 0 mm 1 mps 765 mmHg 79%
07:00 +8°C° 0 mm 1 mps 765 mmHg 79%
08:00 +10°C° 0 mm 1 mps 766 mmHg 73%
09:00 +12°C° 0 mm 1 mps 766 mmHg 67%
10:00 +14°C° 0 mm 1 mps 766 mmHg 60%
11:00 +15°C° 0 mm 2 mps 766 mmHg 56%
12:00 +16°C° 0 mm 2 mps 766 mmHg 53%
13:00 +17°C° 0 mm 2 mps 766 mmHg 49%
14:00 +17°C° 0 mm 2 mps 766 mmHg 49%
15:00 +17°C° 0 mm 2 mps 765 mmHg 49%
16:00 +19°C° 0 mm 1 mps 765 mmHg 49%
17:00 +16°C° 0 mm 1 mps 765 mmHg 54%
18:00 +14°C° 0 mm 1 mps 766 mmHg 59%
19:00 +13°C° 0 mm 1 mps 766 mmHg 64%
20:00 +12°C° 0 mm 1 mps 766 mmHg 66%
21:00 +11°C° 0 mm 0 mps 766 mmHg 68%
22:00 +10°C° 0 mm 0 mps 766 mmHg 70%
23:00 +10°C° 0 mm 0 mps 766 mmHg 71%

29 September, Tuesday

Time Temperature Precipitation Wind Pressure Humidity
00:00 +9°C° 0 mm 0 mps 766 mmHg 72%
01:00 +9°C° 0 mm 0 mps 766 mmHg 74%
02:00 +9°C° 0 mm 0 mps 766 mmHg 76%
03:00 +8°C° 0 mm 0 mps 766 mmHg 77%
04:00 +8°C° 0 mm 0 mps 766 mmHg 79%
05:00 +8°C° 0 mm 0 mps 766 mmHg 79%
06:00 +8°C° 0 mm 0 mps 767 mmHg 79%
07:00 +8°C° 0 mm 0 mps 767 mmHg 79%
08:00 +10°C° 0 mm 0 mps 767 mmHg 73%
09:00 +11°C° 0 mm 0 mps 767 mmHg 68%
10:00 +13°C° 0 mm 0 mps 767 mmHg 62%
11:00 +14°C° 0 mm 0 mps 767 mmHg 59%
12:00 +15°C° 0 mm 0 mps 767 mmHg 55%
13:00 +16°C° 0 mm 0 mps 766 mmHg 51%
14:00 +16°C° 0 mm 0 mps 766 mmHg 51%
15:00 +17°C° 0 mm 0 mps 766 mmHg 50%
16:00 +17°C° 0 mm 0 mps 766 mmHg 50%
17:00 +15°C° 0 mm 0 mps 766 mmHg 55%
18:00 +13°C° 0 mm 0 mps 766 mmHg 61%
19:00 +12°C° 0 mm 0 mps 766 mmHg 66%
20:00 +11°C° 0 mm 0 mps 766 mmHg 68%
21:00 +12°C° 0 mm 1 mps 766 mmHg 70%
22:00 +11°C° 0 mm 1 mps 766 mmHg 71%
23:00 +11°C° 0 mm 1 mps 766 mmHg 73%

30 September, Wednesday

Time Temperature Precipitation Wind Pressure Humidity
00:00 +11°C° 0 mm 1 mps 766 mmHg 74%
01:00 +10°C° 0 mm 1 mps 765 mmHg 75%
02:00 +9°C° 0 mm 0 mps 765 mmHg 77%
03:00 +9°C° 0 mm 0 mps 765 mmHg 78%
04:00 +8°C° 0 mm 0 mps 765 mmHg 80%
05:00 +8°C° 0 mm 0 mps 765 mmHg 80%
06:00 +9°C° 0 mm 1 mps 766 mmHg 80%
07:00 +9°C° 0 mm 1 mps 766 mmHg 81%
08:00 +11°C° 0 mm 1 mps 766 mmHg 75%
09:00 +12°C° 0 mm 1 mps 765 mmHg 70%
10:00 +14°C° 0 mm 1 mps 765 mmHg 65%
11:00 +15°C° 0 mm 1 mps 765 mmHg 61%
12:00 +16°C° 0 mm 1 mps 765 mmHg 58%
13:00 +17°C° 0 mm 2 mps 765 mmHg 54%
14:00 +18°C° 0 mm 1 mps 765 mmHg 55%
15:00 +18°C° 0 mm 1 mps 765 mmHg 56%
16:00 +19°C° 0 mm 1 mps 765 mmHg 57%
17:00 +16°C° 0 mm 1 mps 765 mmHg 63%
18:00 +14°C° 0 mm 1 mps 765 mmHg 68%
19:00 +13°C° 0 mm 1 mps 765 mmHg 73%
20:00 +12°C° 0 mm 1 mps 765 mmHg 76%
21:00 +12°C° 0 mm 1 mps 765 mmHg 78%
22:00 +12°C° 0 mm 1 mps 765 mmHg 81%
23:00 +11°C° 0 mm 1 mps 765 mmHg 83%

1 October, Thursday

Time Temperature Precipitation Wind Pressure Humidity
00:00 +11°C° 0 mm 1 mps 765 mmHg 84%
01:00 +11°C° 0 mm 1 mps 765 mmHg 86%
02:00 +10°C° 0 mm 1 mps 765 mmHg 86%
03:00 +10°C° 0 mm 1 mps 765 mmHg 87%
04:00 +10°C° 0 mm 1 mps 765 mmHg 87%
05:00 +10°C° 0 mm 1 mps 765 mmHg 87%
06:00 +10°C° 0 mm 1 mps 765 mmHg 88%
07:00 +10°C° 0 mm 1 mps 765 mmHg 88%
08:00 +11°C° 0 mm 1 mps 765 mmHg 83%
09:00 +13°C° 0 mm 1 mps 765 mmHg 77%
10:00 +14°C° 0 mm 1 mps 765 mmHg 72%
11:00 +15°C° 0 mm 1 mps 765 mmHg 68%
12:00 +16°C° 0 mm 1 mps 765 mmHg 64%
13:00 +18°C° 0 mm 1 mps 765 mmHg 60%
14:00 +18°C° 0 mm 1 mps 765 mmHg 60%
15:00 +18°C° 0 mm 1 mps 765 mmHg 60%
16:00 +16°C° 0 mm 0 mps 765 mmHg 60%
17:00 +16°C° 0 mm 1 mps 765 mmHg 66%
18:00 +14°C° 0 mm 1 mps 765 mmHg 72%
19:00 +13°C° 0 mm 1 mps 765 mmHg 77%
20:00 +12°C° 0 mm 1 mps 765 mmHg 79%
21:00 +12°C° 0 mm 1 mps 765 mmHg 81%
22:00 +12°C° 0 mm 1 mps 765 mmHg 83%
23:00 +11°C° 0 mm 1 mps 765 mmHg 84%
Show more